Location: Hohe Wand Kleine Kanzel
(47.8330°N, 16.0170°E)
Time: 17:20:31
(UTC+02:00)

Vanguard 3 - Pass Details

Date: 09 August 2021
Orbit: 510 x 3260 km, 33.4° (Epoch: 23 September)

Event Time Altitude Azimuth Distance (km) Brightness Sun altitude
Rises 23:21:51 0° 272° (W) 6,553 12.2 -22.8°
Reaches altitude 10° 23:28:09 10° 257° (WSW) 5,885 11.6 -23.2°
Maximum altitude 23:38:41 18° 222° (SW) 5,490 11.1 -23.9°
Enters shadow 23:45:44 15° 199° (SSW) 5,770 11.0 -24.4°
